Location: Mitty Observatory
(35.9148°N, 88.8847°W)
Time: 10:21:16
(UTC-06:00)

Hubble Space Telescope - Visible Passes

Search period start: 15 November 2019 00:00
Search period end: 25 November 2019 00:00
Orbit: 536 x 540 km, 28.5° (Epoch: 14 November)

Date Brightness Start Highest point End Pass type
(mag) Time Alt. Az. Time Alt. Az. Time Alt. Az.
16 Nov 3.4 18:59:21 10° SSW 18:59:50 11° S 18:59:50 11° S visible
17 Nov 3.0 18:48:15 10° SSW 18:49:56 16° S 18:49:56 16° S visible
18 Nov 2.7 18:37:16 10° SSW 18:39:59 19° S 18:39:59 19° S visible
19 Nov 2.4 18:26:23 10° SW 18:29:36 22° SSE 18:30:01 22° SSE visible
20 Nov 2.3 18:15:34 10° SW 18:18:55 24° S 18:20:03 21° SE visible
21 Nov 2.3 18:04:48 10° SW 18:08:16 26° S 18:10:04 19° SE visible
22 Nov 2.3 17:54:04 10° SW 17:57:35 27° S 18:00:06 16° SE visible
22 Nov 3.8 19:34:54 10° WSW 19:35:26 13° WSW 19:35:26 13° WSW visible
23 Nov 2.3 17:43:22 10° WSW 17:46:56 28° S 17:50:10 12° ESE visible
23 Nov 3.5 19:24:21 10° WSW 19:25:30 16° SW 19:25:30 16° SW visible
24 Nov 2.3 17:32:42 10° WSW 17:36:17 29° S 17:39:52 10° ESE visible
24 Nov 3.2 19:13:51 10° WSW 19:15:37 18° SW 19:15:37 18° SW visible
